Flag for Germany Weather past 2 weeks in Prenzlau, Brandenburg, Germany

Now
55 °F

Partly sunny.


Feels Like: 53 °F
Forecast: 38 / 58 °F
Wind: 8 mph from North

Location: Szczecin Airport

Current Time: Apr 19, 2015 at 1:31:18 PM

Latest Report: Apr 19, 2015 at 1:00 PM


Visibility: N/A

Pressure: 30.18 "Hg

Humidity: 44%

Dew point: 34 °F

Location of PrenzlauLocation

Historic Weather in Prenzlau — Graph

°F

Prenzlau temperature yesterday

Maximum temperature yesterday: 48 °F (at 2:00 PM)
Minimum temperature yesterday: 32 °F (at 2:30 AM)
Average temperature yesterday: 41 °F

Past Weeks' High & Low Weather Summary

 TemperatureHumidityPressure
High70 °F (Apr 11, 1:30 PM)100% (Apr 5, 3:30 AM)30.54 "Hg (Apr 5, 3:30 AM)
Low27 °F (Apr 7, 4:00 AM)26% (Apr 15, 6:30 PM)29.74 "Hg (Apr 15, 6:00 PM)
Average46 °F68%30.16 "Hg
* Reported Apr 4 12:00 Noon — Apr 19 12:30 PM, Prenzlau, Weather by CustomWeather, © 2015

Note: Actual official high and low records may vary slightly from our data, if they occured in-between our weather recording intervals... More about our weather records

Advertising

Prenzlau weather history for previous 24 hours

 ConditionsComfort  
Time TempWeatherWind HumidityBarometerVisibility
12:30 PM
Sun, Apr 19
54 °FPartly sunny.8 mph51%30.18 "HgN/A
12:00 PM54 °FBroken clouds.6 mph51%30.18 "HgN/A
11:30 AM54 °FScattered clouds.7 mph51%30.18 "HgN/A
11:00 AM52 °FScattered clouds.8 mph58%30.18 "HgN/A
10:30 AM52 °FSunny.8 mph58%30.18 "Hg10 mi
10:00 AM50 °FSunny.6 mph62%30.18 "Hg10 mi
9:30 AM48 °FSunny.7 mph71%30.18 "Hg10 mi
9:00 AM46 °FSunny.7 mph71%30.18 "Hg10 mi
8:30 AM43 °FSunny.3 mph71%30.18 "Hg10 mi
8:00 AM37 °FSunny.No wind75%30.18 "Hg10 mi
7:30 AM37 °FSunny.No wind75%30.18 "Hg10 mi
7:00 AM34 °FSunny.No wind81%30.18 "Hg10 mi
6:30 AM34 °FClear.No wind81%30.18 "Hg10 mi
6:00 AM34 °FClear.No wind87%30.15 "Hg10 mi
5:30 AM32 °FClear.No wind87%30.15 "Hg10 mi
5:00 AM34 °FClear.No wind81%30.15 "Hg10 mi
4:30 AM34 °FClear.3 mph81%30.15 "Hg10 mi
4:00 AM36 °FClear.No wind75%30.15 "Hg10 mi
3:30 AM36 °FClear.No wind75%30.15 "Hg10 mi
3:00 AM34 °FClear.No wind75%30.15 "Hg10 mi
2:30 AM34 °FClear.No wind75%30.15 "Hg10 mi
2:00 AM36 °FClear.No wind75%30.15 "Hg10 mi
1:30 AM36 °FClear.No wind75%30.18 "Hg10 mi
1:00 AM36 °FClear.No wind75%30.18 "Hg10 mi
12:30 AM36 °FClear.No wind75%30.18 "Hg10 mi
12:00 AM37 °FClear.No wind70%30.18 "Hg10 mi
11:00 PM
Sat, Apr 18
37 °FClear.No wind70%30.18 "Hg10 mi
10:30 PM37 °FClear.No wind65%30.18 "Hg10 mi
10:00 PM37 °FClear.No wind70%30.18 "Hg10 mi
9:30 PM39 °FClear.No wind65%30.18 "Hg10 mi
9:00 PM41 °FSunny.No wind57%30.18 "Hg10 mi
8:30 PM43 °FSunny.No wind53%30.18 "Hg10 mi
8:00 PM43 °FSunny.5 mph53%30.18 "Hg10 mi
7:30 PM46 °FSunny.6 mph46%30.18 "Hg10 mi
7:00 PM46 °FSunny.8 mph46%30.18 "Hg10 mi
6:30 PM46 °FSunny.9 mph46%30.18 "Hg10 mi
6:00 PM48 °FPassing clouds.9 mph43%30.21 "HgN/A
5:30 PM48 °FPassing clouds.10 mph43%30.21 "HgN/A
5:00 PM48 °FScattered clouds.14 mph43%30.21 "HgN/A
4:30 PM48 °FScattered clouds.10 mph46%30.21 "HgN/A
4:00 PM48 °FScattered clouds.12 mph46%30.21 "HgN/A
3:30 PM46 °FScattered clouds.10 mph46%30.21 "HgN/A
3:00 PM48 °FScattered clouds.12 mph43%30.21 "HgN/A
2:30 PM48 °FScattered clouds.10 mph46%30.21 "HgN/A
2:00 PM48 °FScattered clouds.9 mph46%30.24 "HgN/A
1:30 PM46 °FScattered clouds.8 mph50%30.24 "HgN/A
1:00 PM46 °FScattered clouds.7 mph50%30.24 "HgN/A
Weather by CustomWeather, © 2015

See weather overviewHow to use our weather pages